KAITUO 1B
1 40912U 15049P   18050.92745514 +.00001348 +00000-0 +68508-4 0  9993
2 40912 097.4507 059.9313 0017259 062.5368 359.5859 15.18453708133872
TIANWANG 1C (TW-1C)
1 40926U 15051B   18051.53554610  .00008576  00000-0  17069-3 0  9999
2 40926  97.1979  94.4802 0010124 355.7508 108.3561 15.47112335135266
TIANWANG 1B (TW-1B)
1 40927U 15051C   18051.53619692  .00008300  00000-0  17206-3 0  9990
2 40927  97.2076  94.3771 0010577   6.8163 131.4292 15.45928259135180
TIANWANG 1A (TW-1A)
1 40928U 15051D   18050.86880992 +.00003278 +00000-0 +89667-4 0  9999
2 40928 097.1993 087.1382 0013427 033.0223 091.9330 15.37985927134742
LAPAN A2
1 40931U 15052B   18050.05749696 +.00000745 +00000-0 +14726-4 0  9990
2 40931 005.9986 272.4905 0012908 135.3962 224.7323 14.76565749129519
LQSAT
1 40958U 15057A   18050.85291716 +.00000026 +00000-0 +11756-4 0  9999
2 40958 097.9522 126.5133 0018212 358.3031 001.8101 14.73016263127576
CHUBUSAT 2
1 41338U 16012B   18051.19179322  .00000385  00000-0  23430-4 0  9990
2 41338  31.0043 336.9432 0013776 354.3082   5.7396 14.99921752110259
CHUBUSAT 3
1 41339U 16012C   18051.08724371  .00000361  00000-0  21427-4 0  9997
2 41339  31.0118 336.3719 0013561   0.4834 359.5819 15.00113208110220
OUFTI-1
1 41458U 16025C   18051.11496424  .00001248  00000-0  69435-4 0  9998
2 41458  98.1489 107.6483 0171054 179.7573 180.3819 15.04248648 99830
E-STAR-2
1 41459U 16025D   18050.76945134 +.00002439 +00000-0 +13143-3 0  9993
2 41459 098.1496 107.1650 0172413 181.6160 178.4534 15.04019253099777
AAUSAT 4
1 41460U 16025E   18051.11996360  .00001581  00000-0  86324-4 0  9991
2 41460  98.1446 107.8691 0163703 176.9741 183.2550 15.05296253 99871
NUSAT 1
1 41557U 16033B   18051.22002360  .00001468  00000-0  56391-4 0  9992
2 41557  97.4431 135.6359 0013226 205.1072 154.9526 15.28004962 96290
BEESAT 4
1 41619U 16040W   18051.16988665  .00001433  00000-0  66247-4 0  9996
2 41619  97.4304 115.8718 0010109 281.9577  78.0526 15.21754806 80297
PRATHAM
1 41783U 16059A   18051.17764210  .00000070  00000-0  22827-4 0  9999
2 41783  98.1337 114.5382 0034914 102.7663 257.7445 14.62901406 74857
ALSAT 1N
1 41789U 16059G   18051.09651263  .00000075  00000-0  23263-4 0  9999
2 41789  98.1340 115.4461 0029936  95.7399 264.7222 14.64127811 74886
NAYIF 1
1 42017U 17008BX  18050.91435043 +.00001617 +00000-0 +69589-4 0  9999
2 42017 097.4632 116.6105 0008066 076.9185 283.2952 15.24046653056203
LILACSAT-1
1 42725U 98067ME  18050.74199906  .00022326  00000-0  23694-3 0  9991
2 42725  51.6362 234.6794 0005304 153.5533 206.5733 15.63981214 42111
MAX VALIER SAT
1 42778U 17036P   18051.22264457  .00001140  00000-0  54341-4 0  9999
2 42778  97.4194 112.7999 0014303 116.9872 243.2826 15.21043137 36729
